Wind_Speed
25 25 26 26 23 21 18 17 16 15 19 25 25 24 22 22 21 18 16 14 12 7 5 12 14 12 10 3 4 3 11 10 14 14 13 12 13 9 13 11 12 12 10
27 27 25 23 23 22 22 20 18 15 19 23 27 27 25 25 22 20 17 16 15 10 9 12 16 17 10 6 1 2 11 14 12 12 15 13 12 13 11 11 11 10 9
28 29 27 26 24 24 23 22 20 16 18 22 25 29 27 26 24 21 19 18 17 14 11 14 16 20 14 9 7 6 7 11 15 14 12 13 11 12 10 11 10 9 9
32 32 31 28 26 26 25 24 23 19 18 20 22 28 29 26 25 23 22 20 20 17 15 16 19 21 17 13 7 4 7 11 15 14 13 14 11 10 10 10 10 9 9
28 36 34 31 28 27 28 28 27 22 22 23 23 24 29 28 25 23 23 20 20 18 17 20 21 21 21 15 10 4 4 8 13 14 14 14 12 11 10 10 8 6 3
16 31 38 35 32 31 29 31 31 28 27 24 26 26 26 26 27 27 27 24 23 21 19 22 22 21 23 17 12 7 3 7 10 13 14 13 11 11 11 9 5 4 3
15 23 39 37 36 34 32 32 32 32 28 27 30 27 26 25 25 27 25 26 25 25 25 26 26 23 25 21 16 12 6 6 10 11 12 13 11 9 8 6 5 5 4
17 16 20 25 38 39 36 36 37 36 32 29 35 31 27 26 29 29 28 30 30 27 29 30 27 27 26 25 20 17 12 8 9 11 12 12 11 10 9 7 6 6 5
24 21 20 18 25 44 43 38 38 39 39 34 39 26 23 19 29 34 34 32 31 30 32 33 31 30 28 26 24 20 17 13 12 12 12 12 11 10 9 8 6 6 5
29 28 26 20 23 29 44 44 41 40 43 40 41 41 31 23 20 21 35 36 34 33 34 35 34 31 31 31 28 24 21 18 16 15 14 13 12 11 10 10 8 7 6
35 32 29 29 21 25 37 51 43 42 46 46 44 46 45 38 28 25 24 36 35 34 35 36 41 35 33 34 30 28 24 23 20 18 17 16 13 13 15 14 13 11 11
35 37 34 31 31 22 21 40 49 50 48 50 49 50 50 49 42 34 29 23 37 40 35 36 39 40 35 34 32 31 27 26 25 23 20 19 18 17 18 17 15 16 16
38 37 40 35 31 30 24 28 33 50 49 48 54 53 50 52 48 41 34 30 25 37 39 36 40 40 40 37 36 33 27 28 28 27 25 22 20 20 20 20 18 17 16
41 40 41 42 37 34 34 28 33 31 55 49 51 56 55 52 52 52 47 39 33 28 39 37 38 41 38 38 36 34 32 31 30 29 28 27 25 26 25 23 23 22 22
40 42 41 45 42 39 38 36 36 27 38 48 52 56 57 57 54 52 53 49 40 31 36 38 43 39 42 44 41 37 35 36 33 32 30 30 28 26 27 25 25 23 22
39 40 42 45 48 42 42 41 44 38 33 51 54 59 59 58 56 56 54 55 52 43 37 34 32 37 41 43 42 43 39 38 38 34 32 32 30 29 28 25 27 25 25
40 41 42 45 48 49 42 45 47 47 39 37 55 57 59 58 55 59 57 52 56 52 46 41 38 32 28 38 44 42 43 42 41 39 37 36 35 32 31 28 28 30 29
38 42 42 44 47 51 48 46 46 51 48 32 57 58 63 58 60 60 58 55 55 56 50 42 44 38 33 28 37 41 42 42 47 43 40 38 35 35 33 31 31 32 33
39 40 42 45 47 50 52 49 49 49 49 49 45 66 61 57 58 59 59 58 57 54 49 48 46 42 35 28 31 32 31 33 37 38 38 37 36 35 33 32 29 28 28
37 39 42 45 47 49 52 52 51 51 49 53 40 60 60 58 56 54 54 55 52 53 52 50 51 46 41 34 32 30 32 32 31 32 32 31 29 28 27 26 25 27 27
36 38 42 45 48 50 52 54 52 55 51 52 60 54 60 60 59 53 51 57 57 52 53 55 53 47 44 42 42 39 33 33 31 30 29 28 28 27 27 27 27 27 26
36 37 40 44 47 51 52 51 50 54 54 53 49 55 62 61 59 58 51 58 57 55 55 57 55 55 51 50 47 42 37 37 36 33 31 31 31 32 30 29 29 28 29
34 34 37 41 47 50 49 49 50 54 56 53 47 62 56 62 60 58 53 53 58 58 54 56 58 56 56 56 51 48 42 41 40 35 34 34 34 34 31 31 29 29 30
33 34 34 37 41 48 47 48 50 53 58 52 48 44 63 54 59 56 53 54 59 58 53 48 49 50 49 52 51 47 43 40 37 35 34 35 32 31 30 30 29 29 30
35 35 34 34 39 47 46 47 46 49 55 58 60 57 43 54 66 53 55 56 56 58 53 49 43 41 41 42 39 38 39 37 39 38 37 35 34 33 32 26 26 26 27
37 39 40 34 32 40 43 45 46 48 50 52 62 62 62 62 63 60 55 59 58 59 52 50 50 46 46 49 43 42 44 40 40 40 35 34 32 29 29 29 27 28 28
Wind_Direction
235 232 224 226 228 231 234 237 242 246 234 220 216 214 210 209 209 210 207 215 226 220 219 178 187 199 202 221 184 181 148 158 165 165 157 145 137 140 133 123 126 119 125
235 231 229 227 232 239 243 243 245 253 239 223 218 216 214 214 215 215 218 221 224 225 228 194 193 196 207 226 307 235 173 169 169 160 153 167 150 152 150 143 132 134 123
239 234 233 235 239 242 242 237 229 235 235 228 220 217 216 216 217 220 226 229 235 229 223 208 201 196 204 229 273 254 235 184 165 176 175 161 168 164 162 145 147 134 136
240 239 241 240 242 243 240 233 226 233 233 231 222 214 214 214 215 221 230 234 233 228 226 214 202 203 203 206 262 284 246 195 176 177 179 171 174 167 170 160 155 155 149
253 243 243 244 243 242 239 231 226 233 235 233 219 214 214 215 217 217 226 228 230 229 230 214 207 207 206 199 217 253 249 219 196 183 183 183 178 184 170 174 180 170 157
262 257 249 244 242 240 237 231 228 231 233 235 219 219 219 219 222 226 226 225 225 229 228 215 209 211 211 211 215 221 223 228 212 193 188 190 193 186 183 186 177 170 172
281 261 250 250 245 242 238 235 231 230 229 226 218 219 220 219 222 219 219 222 223 232 223 215 218 212 211 218 216 214 206 218 215 204 198 194 195 192 190 187 193 193 199
276 265 245 246 250 247 237 234 231 230 226 225 214 217 218 222 224 224 220 223 228 229 221 215 220 219 217 219 218 214 204 211 213 211 206 199 195 195 194 194 199 206 212
271 274 269 252 241 251 244 232 231 228 226 224 218 212 209 219 221 225 227 230 230 226 221 221 218 219 223 222 221 220 219 212 212 209 207 205 200 195 196 201 209 210 207
274 272 271 278 245 244 244 239 231 231 228 225 219 218 222 217 205 216 225 233 233 229 224 226 224 221 224 225 227 225 221 218 216 214 216 213 209 205 209 216 220 222 212
279 278 277 273 271 241 247 239 234 230 229 230 225 218 220 223 223 220 218 222 231 232 230 228 223 225 223 227 229 224 222 220 221 221 221 225 219 216 221 223 229 231 229
282 279 277 275 265 255 239 249 238 236 228 231 232 228 221 219 223 222 222 231 229 228 233 228 226 228 227 230 229 229 229 223 225 225 225 225 231 236 236 239 241 237 238
287 281 280 277 270 260 243 231 236 250 233 232 231 233 229 226 225 225 229 232 238 231 227 234 227 230 231 229 228 230 236 232 228 229 229 227 237 244 248 244 246 246 247
293 285 282 279 274 264 259 246 235 242 249 241 233 233 233 230 229 229 226 224 230 236 231 230 229 229 230 229 229 227 231 235 233 234 234 233 235 238 246 249 253 253 255
294 290 281 279 275 270 262 257 245 236 240 247 238 233 233 235 234 235 234 232 228 226 233 234 232 234 232 233 230 228 234 233 235 239 236 237 240 244 245 251 253 257 259
294 291 286 278 276 269 264 261 256 251 243 243 242 233 236 235 234 237 237 236 234 234 239 243 244 244 242 234 234 240 240 233 235 242 242 239 242 247 248 249 253 259 256
296 291 287 281 275 273 265 262 257 255 251 245 238 243 238 236 227 234 236 239 236 235 235 242 249 250 254 248 237 236 239 236 235 241 245 243 245 247 249 251 252 256 258
294 292 288 282 277 272 269 261 257 253 255 256 232 236 239 240 236 234 237 237 236 236 235 238 245 246 248 252 235 237 238 241 240 245 242 246 249 248 248 248 251 254 256
295 290 287 283 278 273 269 262 257 252 250 249 241 229 236 235 234 238 235 237 236 237 238 237 243 243 242 237 225 231 234 237 237 237 239 243 249 249 248 247 247 249 253
296 291 286 283 279 274 269 263 257 253 247 247 252 223 231 237 240 237 235 235 237 235 237 237 237 236 237 228 224 233 235 235 231 229 232 235 239 239 236 238 240 243 250
299 292 287 281 278 274 267 263 256 251 245 242 240 233 232 240 239 241 237 227 232 235 239 237 231 229 226 224 227 230 235 233 233 232 230 231 233 236 238 241 245 249 254
303 296 287 282 276 271 265 261 255 250 244 239 244 242 233 236 238 240 236 235 236 234 231 235 231 226 225 227 232 232 236 231 230 230 231 233 236 240 243 242 250 254 258
312 301 290 282 276 270 265 258 252 247 246 235 237 239 233 228 230 234 238 236 238 240 237 238 233 228 226 230 232 234 237 233 232 234 234 239 242 245 248 250 252 254 257
324 319 305 291 280 272 263 256 251 245 243 238 225 239 238 219 228 233 235 233 229 239 229 232 237 240 240 239 239 240 237 232 234 238 241 242 247 248 249 250 253 254 259
336 334 321 305 287 273 262 254 248 244 241 235 225 226 221 222 227 232 234 235 235 233 228 228 236 235 242 239 235 232 229 232 232 235 237 244 247 254 254 246 252 255 263
344 342 332 320 296 275 266 256 244 236 238 233 228 227 234 239 239 245 237 231 228 229 229 224 229 238 235 236 231 228 230 229 232 237 234 237 242 243 242 249 258 262 265
Height
1544 1546 1546 1548 1550 1553 1555 1557 1559 1560 1561 1563 1565 1568 1571 1573 1575 1577 1579 1580 1581 1582 1583 1583 1585 1586 1587 1588 1588 1589 1589 1591 1592 1593 1594 1595 1596 1597 1597 1598 1598 1598 1598
1541 1542 1543 1544 1546 1549 1552 1553 1555 1557 1558 1559 1562 1564 1568 1571 1573 1575 1577 1578 1580 1581 1582 1583 1584 1585 1586 1588 1588 1589 1589 1590 1592 1593 1593 1595 1596 1598 1598 1598 1599 1599 1599
1535 1538 1539 1540 1542 1544 1547 1549 1551 1553 1555 1556 1558 1561 1564 1567 1570 1573 1574 1576 1578 1579 1581 1581 1583 1584 1585 1587 1588 1588 1588 1589 1591 1592 1593 1595 1595 1596 1597 1598 1599 1599 1600
1528 1532 1534 1535 1537 1539 1542 1545 1547 1549 1551 1552 1555 1557 1560 1563 1567 1570 1572 1574 1575 1577 1579 1580 1581 1582 1583 1586 1587 1587 1587 1587 1589 1591 1593 1594 1595 1596 1596 1597 1598 1599 1600
1518 1526 1528 1530 1531 1533 1536 1539 1542 1545 1547 1549 1551 1554 1557 1560 1563 1566 1568 1570 1572 1574 1576 1578 1579 1581 1582 1583 1585 1586 1587 1587 1587 1589 1591 1593 1594 1595 1596 1597 1598 1599 1599
1516 1521 1521 1522 1525 1526 1529 1533 1536 1540 1543 1546 1548 1550 1553 1556 1559 1561 1564 1567 1568 1571 1573 1575 1576 1578 1580 1582 1584 1585 1586 1586 1587 1587 1589 1591 1593 1594 1595 1596 1597 1598 1600
1509 1508 1514 1515 1518 1520 1524 1526 1530 1534 1537 1540 1544 1547 1549 1551 1553 1556 1559 1561 1564 1566 1569 1571 1573 1575 1577 1579 1581 1583 1584 1585 1586 1587 1588 1589 1591 1593 1594 1595 1597 1597 1598
1505 1506 1502 1506 1511 1514 1517 1518 1522 1526 1531 1535 1537 1541 1545 1548 1549 1551 1553 1555 1559 1561 1564 1566 1569 1571 1573 1576 1578 1580 1582 1583 1584 1586 1587 1588 1589 1591 1593 1594 1595 1596 1597
1500 1501 1500 1499 1500 1506 1510 1511 1515 1518 1522 1528 1531 1535 1539 1539 1542 1545 1547 1550 1553 1555 1559 1562 1564 1567 1570 1572 1575 1577 1579 1581 1582 1583 1585 1588 1588 1590 1591 1592 1593 1594 1596
1492 1493 1495 1494 1494 1499 1500 1505 1506 1510 1514 1519 1524 1527 1530 1532 1534 1538 1541 1544 1547 1550 1553 1556 1560 1562 1565 1568 1571 1573 1576 1579 1580 1581 1582 1584 1587 1588 1590 1591 1592 1593 1593
1484 1485 1487 1488 1488 1490 1492 1492 1497 1499 1504 1509 1513 1518 1523 1525 1528 1531 1531 1536 1541 1543 1546 1549 1554 1557 1559 1563 1565 1568 1571 1574 1577 1578 1579 1581 1583 1585 1587 1589 1590 1591 1591
1476 1476 1477 1480 1482 1483 1481 1483 1481 1491 1494 1498 1503 1507 1511 1515 1518 1523 1526 1529 1533 1536 1539 1543 1546 1551 1554 1557 1560 1563 1566 1568 1572 1574 1575 1577 1579 1581 1583 1585 1586 1588 1588
1467 1467 1466 1469 1472 1473 1474 1474 1477 1475 1480 1486 1493 1497 1503 1506 1511 1516 1522 1525 1527 1530 1533 1536 1540 1544 1548 1551 1554 1559 1561 1564 1567 1570 1572 1574 1575 1576 1578 1580 1582 1583 1585
1457 1459 1457 1457 1460 1463 1464 1464 1467 1468 1471 1474 1482 1488 1493 1498 1502 1506 1511 1516 1521 1524 1525 1527 1532 1535 1541 1545 1549 1553 1555 1558 1561 1564 1567 1569 1570 1571 1573 1576 1578 1579 1580
1451 1449 1449 1447 1449 1452 1454 1456 1458 1461 1464 1466 1471 1476 1481 1488 1492 1498 1503 1507 1512 1514 1515 1519 1524 1528 1534 1539 1542 1545 1548 1551 1555 1558 1559 1562 1565 1567 1568 1570 1572 1574 1576
1444 1441 1439 1439 1437 1441 1444 1445 1447 1450 1454 1456 1459 1463 1470 1476 1482 1487 1492 1498 1502 1506 1508 1513 1517 1521 1527 1530 1534 1538 1541 1544 1547 1550 1552 1555 1557 1560 1563 1565 1567 1568 1570
1434 1432 1430 1428 1427 1427 1434 1435 1437 1440 1444 1447 1447 1453 1456 1464 1469 1474 1481 1488 1492 1496 1499 1506 1510 1515 1518 1520 1525 1529 1533 1536 1539 1542 1545 1547 1550 1553 1555 1558 1560 1562 1563
1426 1422 1420 1418 1416 1416 1419 1423 1425 1429 1431 1434 1435 1441 1445 1454 1457 1462 1467 1475 1481 1486 1492 1497 1501 1505 1509 1510 1515 1520 1524 1527 1530 1534 1537 1540 1542 1544 1547 1550 1552 1554 1555
1416 1413 1409 1406 1405 1405 1405 1409 1413 1417 1421 1424 1427 1426 1433 1442 1445 1449 1454 1461 1470 1476 1481 1487 1491 1496 1500 1503 1507 1512 1515 1517 1520 1525 1530 1532 1534 1536 1538 1540 1543 1545 1547
1406 1402 1399 1395 1393 1393 1392 1395 1399 1401 1405 1410 1414 1412 1420 1427 1432 1438 1443 1448 1456 1463 1470 1476 1480 1485 1491 1494 1499 1504 1506 1509 1512 1516 1521 1524 1527 1528 1530 1533 1534 1537 1539
1395 1392 1387 1383 1380 1379 1378 1380 1385 1387 1391 1396 1401 1403 1405 1413 1421 1425 1431 1436 1443 1448 1459 1465 1469 1475 1479 1482 1486 1492 1497 1501 1505 1510 1513 1517 1520 1522 1524 1525 1528 1530 1531
1385 1380 1375 1370 1366 1363 1362 1366 1371 1374 1378 1383 1386 1395 1392 1398 1406 1413 1418 1426 1431 1436 1445 1451 1457 1458 1464 1471 1478 1483 1489 1492 1496 1499 1503 1508 1512 1514 1516 1517 1520 1522 1524
1374 1368 1362 1357 1351 1348 1347 1350 1355 1359 1362 1367 1373 1377 1382 1383 1390 1400 1406 1414 1420 1427 1433 1438 1442 1447 1455 1461 1469 1473 1479 1482 1486 1491 1495 1500 1503 1505 1508 1510 1512 1513 1515
1363 1355 1348 1343 1338 1332 1332 1333 1338 1342 1345 1349 1356 1365 1371 1371 1378 1386 1395 1403 1407 1413 1418 1426 1433 1441 1446 1454 1458 1467 1471 1476 1481 1484 1487 1490 1493 1496 1499 1500 1502 1504 1506
1354 1345 1338 1331 1324 1317 1316 1317 1324 1326 1329 1332 1340 1350 1353 1363 1366 1376 1384 1390 1396 1400 1407 1415 1422 1431 1438 1442 1449 1457 1462 1469 1471 1474 1478 1481 1483 1487 1489 1490 1492 1494 1496
1346 1336 1327 1319 1310 1301 1300 1301 1307 1311 1314 1318 1321 1332 1339 1348 1357 1364 1371 1378 1383 1387 1395 1404 1412 1419 1427 1432 1439 1443 1449 1454 1460 1463 1467 1470 1474 1477 1479 1481 1483 1485 1487